Wind_Speed
49 51 50 50 49 45 41 40 40 40 39 39 40 43 48 45 33 28 28 31 35 40 44 49 55 60 65 69 71 74 78 81 83 84 85 87 89 91 91 91 90 89 88
46 45 45 45 43 38 36 36 36 35 34 36 40 39 24 20 24 28 32 38 43 47 53 59 65 70 73 76 80 85 87 86 86 86 86 88 89 90 89 89 88 87 85
43 42 40 40 38 35 35 33 31 31 34 36 20 13 16 21 25 31 36 43 49 54 59 65 71 77 80 84 89 90 89 87 84 82 81 79 79 79 79 80 79 78 76
44 43 41 37 35 32 29 28 28 33 22 8 9 14 18 25 30 37 43 49 54 60 64 69 78 82 86 91 91 87 82 76 72 70 69 68 67 66 66 67 66 65 63
44 41 41 35 31 27 25 26 24 7 5 7 10 16 24 30 35 42 48 54 60 64 70 76 85 87 94 92 84 77 69 64 61 60 58 56 55 54 53 53 55 52 52
23 16 22 31 29 24 21 8 6 4 4 9 16 20 28 36 42 49 55 60 66 70 77 82 88 93 91 83 75 66 59 55 52 51 49 48 47 45 43 43 43 42 40
10 11 9 8 9 13 14 9 5 1 6 11 18 26 35 43 49 54 60 65 71 76 81 88 90 93 85 75 64 56 52 50 48 45 43 42 39 38 36 35 33 32 31
22 25 25 23 20 17 12 7 3 3 9 16 24 33 41 47 54 60 67 71 76 80 83 90 93 88 80 68 58 52 48 45 42 40 41 37 34 32 30 28 25 25 25
22 22 21 19 17 12 8 6 3 9 15 21 29 38 44 50 57 65 71 75 79 85 87 91 94 86 74 64 56 50 45 40 39 36 34 33 28 27 23 20 20 20 19
15 16 15 14 11 8 4 4 10 15 21 28 36 44 48 57 63 68 74 79 84 89 94 95 95 84 71 61 55 48 42 39 35 31 28 30 23 21 17 15 17 16 16
11 11 10 9 7 6 6 12 17 22 27 34 41 49 54 61 66 74 76 81 86 90 93 96 94 82 71 61 52 46 41 36 32 28 24 23 18 14 12 13 15 14 15
9 9 8 7 9 10 14 19 24 28 34 40 47 50 57 65 71 76 79 84 88 91 93 97 91 79 68 58 50 43 38 34 30 26 21 17 12 9 10 13 14 15 17
9 10 9 11 12 16 21 25 29 34 39 43 48 56 61 68 73 79 83 89 93 94 96 98 88 77 66 56 47 42 36 32 28 23 17 11 7 6 9 13 14 17 20
14 13 13 17 18 23 26 30 35 39 45 49 55 60 63 70 76 82 86 92 94 95 97 100 87 73 59 51 45 39 35 30 24 20 13 8 3 5 10 14 16 20 21
18 17 19 22 25 28 30 34 38 44 49 52 58 61 66 72 78 82 87 92 93 95 97 98 85 71 60 48 41 38 33 27 22 17 11 5 1 7 12 15 19 23 23
21 21 23 27 30 32 35 37 42 47 51 56 60 63 69 73 78 83 89 91 93 95 97 95 81 67 57 48 43 36 31 26 21 15 9 3 3 8 12 17 22 24 28
25 27 30 31 33 35 38 42 45 49 55 59 63 67 70 75 79 84 89 91 91 95 98 92 79 65 55 47 41 36 30 24 19 14 8 3 6 10 14 20 24 24 30
28 30 32 34 36 37 40 46 49 52 56 60 65 70 73 76 80 85 88 90 91 94 98 90 77 64 53 46 39 33 28 22 17 13 8 4 8 12 17 22 25 28 33
31 33 35 37 39 42 45 49 51 54 59 62 67 71 75 78 80 83 85 88 89 92 96 87 74 61 51 44 37 31 26 21 16 12 8 7 9 14 19 24 25 32 37
33 35 37 39 42 45 48 50 53 56 60 64 68 72 76 79 79 82 84 86 88 90 94 84 71 58 48 42 36 28 25 21 15 11 9 8 12 15 21 25 28 35 39
34 34 37 40 43 46 50 51 54 59 62 66 70 74 77 79 78 81 82 84 88 88 91 81 68 55 46 40 33 26 22 19 15 11 9 11 14 18 24 25 32 37 40
36 38 41 43 46 51 54 56 59 63 64 67 70 74 76 76 77 79 79 82 86 87 87 78 65 53 44 38 31 25 20 17 14 11 10 13 17 22 25 26 34 39 40
36 39 43 46 50 54 57 60 62 63 66 69 70 72 73 74 76 76 78 80 84 84 82 73 60 48 41 35 28 23 19 16 13 11 12 15 20 25 24 29 35 38 38
39 44 47 51 54 57 60 62 65 66 68 70 70 71 71 72 73 74 77 79 80 81 77 68 54 44 37 31 25 21 17 15 12 11 13 17 23 24 25 33 35 36 35
43 48 51 54 57 59 62 64 67 68 69 69 69 69 70 70 71 73 75 77 76 77 70 60 48 40 33 27 22 18 14 13 11 12 13 19 24 24 29 35 34 34 35
32 38 40 46 52 58 63 66 66 66 67 67 68 69 68 69 70 71 74 74 72 70 63 52 41 36 28 23 19 15 12 12 11 12 14 20 24 25 30 34 33 32 31
Wind_Direction
281 280 277 276 280 286 286 288 290 292 292 293 296 298 299 301 302 309 313 314 311 312 311 311 311 311 308 304 300 296 294 291 287 284 281 279 278 277 276 275 274 274 274
284 280 275 274 281 286 286 289 291 293 296 299 301 302 302 311 314 313 314 314 314 315 313 313 311 311 310 307 303 301 299 295 290 285 281 279 278 277 275 274 273 273 273
288 283 279 281 285 285 287 290 292 297 303 303 298 301 306 310 316 319 317 318 316 317 316 317 316 316 313 308 306 303 301 297 292 288 284 280 278 276 275 274 273 272 272
289 282 278 277 276 279 283 288 296 301 296 270 292 305 312 321 325 326 324 323 322 322 321 320 320 319 315 311 308 305 302 298 293 289 285 283 280 277 275 274 272 272 271
294 275 264 263 269 275 282 292 293 260 246 277 296 318 330 331 329 325 325 325 322 322 324 324 323 321 318 314 311 309 304 299 295 292 290 288 285 282 278 274 272 269 268
311 287 256 248 254 270 281 228 176 210 279 305 321 328 328 327 327 329 328 327 327 327 328 326 326 324 319 317 316 312 307 302 298 296 294 291 288 286 282 278 274 271 266
54 92 123 159 177 162 152 158 158 277 313 323 326 324 326 328 328 327 328 330 331 331 331 330 329 326 323 322 319 314 310 306 303 300 295 292 290 287 283 277 273 267 262
96 103 110 119 127 135 143 147 164 302 309 312 320 324 326 324 325 328 330 333 333 332 333 332 332 329 327 325 321 317 314 310 305 300 297 294 292 287 282 276 267 259 253
107 110 114 121 126 130 147 179 246 282 297 308 318 319 321 324 328 331 331 332 334 335 335 335 336 333 331 327 324 321 319 314 308 306 300 295 292 288 281 269 254 245 238
119 119 127 133 135 159 185 257 276 286 298 311 315 322 326 330 329 331 333 335 337 338 338 338 339 336 334 331 327 325 322 318 313 311 302 297 296 287 273 255 238 227 220
142 142 152 159 184 207 250 270 280 292 304 313 321 325 327 329 329 332 335 336 338 339 339 340 341 339 336 334 331 328 327 323 320 315 308 301 295 280 255 233 218 210 200
178 185 196 223 242 267 281 289 297 306 311 320 326 327 328 330 330 333 336 337 340 340 341 343 342 340 339 336 334 332 331 329 326 322 318 309 291 266 229 210 202 191 182
219 225 235 255 273 283 288 293 303 309 316 324 329 330 330 331 332 335 337 340 341 342 343 344 344 342 341 338 338 337 336 335 332 330 325 315 292 244 204 193 185 177 170
242 241 256 265 276 283 291 302 310 316 322 325 327 327 328 330 333 336 339 341 342 343 344 345 345 343 343 341 340 339 338 338 339 336 334 330 279 199 183 180 172 167 165
246 256 267 274 281 290 298 309 315 319 320 324 325 326 329 332 334 336 339 340 343 344 345 346 345 344 345 345 344 342 340 340 345 345 346 346 185 171 170 167 162 161 160
254 263 271 280 287 295 303 309 314 317 320 323 326 328 329 331 334 337 340 341 343 344 345 346 346 347 347 347 346 346 347 347 353 355 358 19 136 155 159 156 158 158 156
259 267 274 283 292 297 301 307 312 318 320 324 327 329 330 332 335 339 340 341 344 344 345 347 348 348 349 349 349 348 349 355 359 8 13 60 129 145 151 152 157 154 154
263 272 279 286 293 296 303 309 314 317 321 324 326 328 330 332 336 338 339 342 343 344 346 347 348 349 350 350 351 352 352 360 8 21 36 78 128 140 147 151 154 154 153
267 274 282 290 297 302 307 310 313 316 320 324 327 328 330 332 335 336 339 342 343 344 346 347 349 350 351 352 353 356 359 5 17 28 50 96 129 141 147 151 151 153 153
273 279 286 291 296 302 307 310 314 318 320 323 325 326 329 331 333 336 339 341 342 345 346 347 349 351 352 354 356 1 3 9 22 39 64 100 129 140 145 148 151 153 153
277 282 288 293 297 302 307 311 314 316 318 321 323 326 327 329 332 335 339 340 341 344 345 347 349 351 353 355 358 3 9 18 28 45 74 109 127 137 144 146 151 153 153
279 286 291 294 298 302 305 308 310 313 316 320 322 324 326 330 332 335 337 339 341 343 345 347 348 351 353 357 359 5 13 26 40 54 84 114 129 138 142 145 151 154 154
285 289 292 295 299 302 303 306 308 312 315 317 319 322 326 329 331 333 336 338 340 342 344 346 348 351 353 358 1 8 18 33 47 62 92 117 131 138 141 147 150 155 155
286 288 291 295 298 300 303 305 307 310 313 314 318 321 324 327 330 333 335 337 340 342 344 345 347 350 353 359 2 10 24 38 58 74 104 122 135 137 140 149 152 156 156
287 291 295 297 298 301 302 303 305 307 309 311 315 318 322 326 329 332 334 337 339 341 344 344 347 350 354 360 3 15 32 48 68 87 112 131 139 138 145 151 153 158 161
312 309 313 311 307 303 302 301 302 305 306 309 312 315 320 324 328 332 334 337 338 342 344 345 348 351 356 1 5 14 39 61 83 99 123 139 144 143 149 154 155 158 160
Height
10599 10600 10602 10604 10605 10603 10601 10598 10595 10594 10592 10590 10588 10584 10579 10574 10568 10563 10558 10553 10547 10540 10533 10524 10515 10504 10493 10481 10469 10458 10447 10436 10426 10417 10407 10399 10391 10384 10380 10377 10376 10374 10373
10585 10586 10587 10589 10591 10591 10590 10588 10587 10585 10583 10581 10578 10573 10569 10566 10562 10557 10552 10546 10538 10529 10520 10509 10497 10485 10472 10457 10443 10429 10415 10402 10391 10381 10373 10366 10360 10354 10350 10347 10346 10345 10345
10572 10571 10573 10576 10579 10580 10580 10580 10579 10578 10576 10573 10570 10568 10565 10561 10556 10550 10544 10535 10526 10515 10503 10489 10476 10462 10447 10430 10413 10396 10380 10367 10355 10345 10337 10332 10327 10324 10320 10318 10318 10319 10321
10558 10557 10560 10565 10568 10571 10572 10572 10572 10570 10568 10567 10566 10563 10559 10555 10549 10541 10533 10524 10513 10501 10488 10474 10457 10440 10422 10404 10385 10367 10350 10336 10324 10315 10307 10302 10299 10299 10296 10294 10295 10297 10298
10536 10537 10544 10551 10557 10561 10563 10565 10565 10564 10564 10562 10560 10557 10553 10547 10540 10533 10523 10512 10501 10489 10473 10456 10437 10416 10395 10373 10355 10339 10324 10310 10300 10292 10285 10281 10277 10275 10275 10275 10274 10278 10280
10522 10522 10529 10538 10547 10553 10558 10559 10560 10560 10559 10557 10555 10552 10548 10542 10533 10523 10512 10501 10488 10471 10455 10437 10415 10393 10370 10350 10332 10314 10301 10291 10282 10274 10269 10263 10260 10258 10258 10257 10257 10260 10265
10523 10524 10528 10535 10543 10549 10553 10556 10557 10557 10556 10554 10552 10547 10540 10532 10524 10514 10502 10488 10473 10456 10437 10417 10394 10371 10347 10329 10313 10298 10286 10275 10266 10260 10255 10250 10247 10245 10245 10244 10245 10246 10250
10533 10534 10537 10541 10545 10549 10553 10555 10555 10555 10554 10551 10546 10540 10533 10525 10515 10503 10489 10474 10459 10444 10424 10401 10376 10350 10328 10310 10296 10283 10272 10263 10255 10247 10240 10237 10235 10234 10233 10233 10234 10236 10239
10544 10543 10545 10546 10549 10552 10553 10554 10553 10552 10549 10546 10540 10534 10526 10516 10504 10491 10477 10463 10446 10427 10407 10384 10359 10334 10314 10295 10281 10270 10260 10252 10242 10236 10231 10227 10225 10224 10224 10225 10226 10229 10233
10551 10550 10551 10551 10552 10553 10553 10552 10550 10548 10545 10540 10534 10526 10516 10505 10494 10482 10466 10448 10431 10410 10388 10364 10341 10317 10297 10282 10268 10257 10248 10240 10233 10228 10222 10217 10217 10216 10217 10218 10220 10224 10228
10556 10554 10554 10554 10553 10553 10552 10550 10547 10544 10540 10535 10528 10519 10509 10498 10486 10471 10456 10439 10421 10400 10378 10352 10326 10303 10283 10269 10256 10246 10238 10230 10224 10219 10214 10211 10210 10209 10211 10213 10216 10221 10226
10557 10556 10555 10555 10553 10551 10549 10547 10544 10539 10534 10528 10520 10511 10500 10487 10474 10460 10445 10427 10409 10388 10365 10340 10315 10293 10275 10258 10247 10238 10230 10223 10216 10211 10208 10205 10204 10204 10206 10209 10213 10219 10224
10557 10556 10555 10554 10551 10548 10546 10543 10539 10534 10528 10521 10512 10502 10490 10477 10464 10449 10431 10413 10392 10371 10350 10328 10304 10284 10266 10251 10240 10231 10223 10216 10210 10206 10202 10200 10200 10201 10204 10207 10211 10217 10224
10555 10554 10552 10550 10548 10545 10541 10538 10534 10528 10520 10512 10504 10494 10483 10470 10454 10437 10419 10400 10382 10360 10338 10317 10296 10279 10265 10249 10235 10226 10218 10212 10207 10202 10200 10199 10198 10200 10203 10206 10211 10217 10224
10552 10551 10549 10546 10544 10541 10537 10533 10527 10521 10513 10506 10497 10485 10472 10460 10445 10430 10412 10394 10376 10354 10332 10311 10290 10269 10254 10243 10234 10224 10216 10210 10205 10201 10199 10198 10198 10199 10201 10205 10211 10218 10225
10548 10547 10545 10542 10539 10536 10532 10527 10521 10515 10506 10497 10487 10475 10463 10452 10437 10422 10403 10385 10367 10347 10328 10307 10285 10267 10252 10239 10229 10221 10214 10208 10204 10200 10199 10198 10198 10200 10203 10207 10214 10220 10227
10544 10542 10540 10537 10534 10530 10526 10521 10514 10507 10498 10488 10477 10467 10455 10442 10428 10412 10395 10376 10359 10340 10320 10300 10280 10264 10249 10238 10227 10219 10213 10208 10204 10201 10199 10198 10199 10202 10205 10210 10216 10223 10230
10539 10536 10534 10531 10528 10523 10518 10513 10505 10498 10489 10480 10470 10458 10446 10433 10419 10405 10389 10370 10352 10334 10315 10296 10277 10261 10248 10236 10227 10220 10214 10209 10204 10201 10200 10200 10201 10204 10208 10213 10219 10226 10233
10533 10531 10528 10525 10521 10516 10511 10505 10498 10490 10482 10472 10461 10449 10436 10424 10413 10400 10384 10366 10349 10330 10311 10293 10275 10260 10248 10237 10228 10221 10215 10210 10206 10203 10202 10203 10205 10208 10212 10217 10223 10230 10237
10527 10525 10522 10519 10514 10509 10503 10497 10489 10482 10474 10464 10453 10442 10429 10417 10405 10392 10378 10361 10344 10327 10309 10290 10274 10260 10248 10237 10229 10221 10216 10212 10208 10206 10205 10206 10208 10212 10216 10221 10227 10234 10241
10520 10519 10516 10512 10507 10501 10494 10488 10481 10473 10465 10457 10446 10434 10423 10410 10398 10385 10371 10356 10340 10324 10305 10288 10272 10260 10248 10238 10230 10224 10219 10215 10212 10210 10209 10210 10212 10216 10220 10226 10232 10239 10247
10515 10513 10508 10503 10498 10493 10486 10480 10473 10465 10458 10449 10439 10427 10415 10403 10390 10377 10365 10352 10336 10319 10302 10286 10271 10259 10248 10239 10232 10227 10222 10218 10215 10214 10214 10214 10217 10221 10226 10231 10237 10245 10253
10509 10505 10500 10495 10490 10484 10478 10471 10464 10456 10449 10441 10431 10422 10409 10396 10383 10372 10360 10347 10333 10317 10300 10284 10270 10259 10249 10241 10235 10229 10225 10222 10220 10219 10219 10220 10222 10227 10231 10237 10244 10252 10259
10502 10496 10491 10487 10481 10475 10469 10461 10454 10447 10439 10430 10422 10412 10402 10391 10379 10367 10355 10342 10327 10312 10296 10281 10269 10259 10250 10243 10237 10233 10229 10227 10224 10224 10224 10226 10229 10234 10238 10244 10251 10258 10266
10492 10487 10483 10477 10471 10465 10458 10451 10444 10437 10428 10420 10412 10404 10394 10384 10373 10362 10349 10337 10322 10308 10293 10279 10268 10259 10252 10245 10241 10237 10233 10231 10230 10229 10230 10232 10236 10240 10245 10251 10258 10264 10271
10485 10480 10474 10468 10462 10455 10447 10439 10432 10426 10418 10410 10402 10394 10385 10376 10366 10356 10344 10331 10318 10304 10290 10277 10267 10259 10253 10248 10243 10240 10237 10236 10235 10235 10236 10238 10242 10246 10251 10257 10263 10270 10276